Hourly Data Report for October 15, 2015

All times are specified in Local Standard Time (LST). Add 1 hour to adjust for Daylight Saving Time where and when it is observed.

QIKIQTARJUAQ A
NUNAVUT

67°32'48.000" N
64°01'54.000" W
5.50 m
2400577
YVM

Download Data

Hourly Data (October 2015)
Hourly Data Report for October 15, 2015
Temp Definition
°C
Dew Point Temp Definition
°C
Rel Hum Definition
%
Wind Dir Definition
10's deg

Wind Spd Definition
km/h
Visibility Definition
km
Stn Press Definition
kPa
Hmdx Definition


Wind Chill Definition


Weather Definition


TIME
00:00 Legend Double Dagger -6.5 -14.9 52 12 8 16.1 98.91   -10 LegendNANA
01:00 Legend Double Dagger -8.2 -15.1 58 17 5 16.1 98.92   -11 LegendNANA
02:00 Legend Double Dagger -7.0 -15.1 53 15 9 16.1 98.93   -11 LegendNANA
03:00 Legend Double Dagger -7.6 -15.0 56 16 11 16.1 98.91   -13 LegendNANA
04:00 Legend Double Dagger -4.9 -15.9 42 18 26 16.1 98.88   -12 LegendNANA
05:00 Legend Double Dagger -5.2 -13.4 53 20 24 16.1 98.90   -12 LegendNANA
06:00 Legend Double Dagger -4.7 -15.3 44 19 22 16.1 98.91   -12 LegendNANA
07:00 Legend Double Dagger -5.7 -14.6 50 19 17 16.1 98.97   -12 LegendNANA
08:00 Legend Double Dagger -5.2 -14.1 50 21 17 16.1 99.02   -11 LegendNANA
09:00 Legend Double Dagger -4.8 -14.4 47 19 21 16.1 99.05   -11 LegendNANA
10:00 Legend Double Dagger -2.0 -14.7 38 18 18 16.1 99.06   -7 LegendNANA
11:00 Legend Double Dagger -2.3 -11.4 50 20 26 16.1 99.07   -9 LegendNANA
12:00 Legend Double Dagger -0.9 -10.2 49 21 22 16.1 99.15   -7 LegendNANA
13:00 Legend Double Dagger -1.0 -13.0 40 21 17 16.1 99.21   -6 LegendNANA
14:00 Legend Double Dagger -0.5 -12.1 41 24 28 16.1 99.29   -7 LegendNANA
15:00 Legend Double Dagger -1.7 -11.2 48 21 13 16.1 99.35   -6 LegendNANA
16:00 Legend Double Dagger -1.7 -13.4 41 LegendMM 4 16.1 99.42   -3 LegendNANA
17:00 Legend Double Dagger -5.1 -12.2 58 LegendMM 4 16.1 99.54   -7 LegendNANA
18:00 Legend Double Dagger -4.5 -9.6 68 20 8 16.1 99.62   -8 LegendNANA
19:00 Legend Double Dagger -3.7 -12.9 49 13 5 16.1 99.70   -6 LegendNANA
20:00 Legend Double Dagger -4.0 -11.6 56 LegendMM 5 16.1 99.77   -6 LegendNANA
21:00 Legend Double Dagger -6.0 -12.4 61 LegendMM 4 16.1 99.80   -8 LegendNANA
22:00 Legend Double Dagger -6.0 -13.3 57 17 5 16.1 99.81   -8 LegendNANA
23:00 Legend Double Dagger -6.4 -11.9 65 10 5 16.1 99.82   -9 LegendNANA

Notes on Data Quality.

Legend

  • E = Estimated
  • M = Missing
  • NA = Not Available
  • ‡ = Partner data that is not subject to review by the National Climate Archives
Date modified: